Showing default

HONGYUN 1, 43871

Orbit data source: Space-Track

HONGYUN 1, 43871 is a payload satellite owned by CASIC (CN) in SSO that was launched on Fri, 21 Dec 2018 UTC via a CHANG ZHENG 11 launch vehicle from the Jiuquan Satellite Launch Center, China (JSC). Payload-class satellites include a variety of spacecraft equipped with specific instruments for various scientific and technological missions. These include communications satellites like Starlink; space stations such as the ISS; scientific satellites like the Hubble; Earth observation satellites from companies like Planet Labs, Umbra, and HawkEye 360; GPS; miniature CubeSats for education and research; and military/defense satellites.

Loading next visibility...
Identifier
43871, 2018-108A
Orbit
SSO
Country
Flag of CNCN / PRC
Related business
Manufacturer
CASIC
Mission
Operational Civil Communications
Bus & Motor
HONGYUN, Unknown motor
Mass
~250 kg wet, ~250 kg dry
Launch date (UTC)
2018-12-21 (8 years ago)
Launch vehicle
CHANG ZHENG 11
Launch site
Jiuquan Satellite Launch Center, China (JSC)
Object type
Payload
Rocket body
Debris
Shape & HBR
Box + 2 Pan, 2.0 m
Radar Cross Section
1.356 m², Large (>1 m²)

Expand to show TLE details & history
Last TLE update: 22 hours ago

TLE from 22 hours ago
0 HONGYUN 1
1 43871U 18108A   26172.54235264 -.00000262  00000-0 -33440-3 0  9999
2 43871  99.7501 194.2539 0013619  56.1330 304.1099 13.51424303369670
Epoch: 2026-06-21T13:00Z
TLE epoch observation values (Epoch: 2026-06-21T13:00:59.268Z)
Latitude
0.00002°
Longitude
89.26582°
Altitude
1,064.131 km
Speed
7.323 km/s
True Right ascension
12h 57m 00s
True Declination
0° 00' 00"
Sunlit
Object was in daylight at epoch
Visualization orbit readout
Latitude
Unknown
Longitude
Unknown
Altitude
Unknown
Speed
Unknown
Apparent Right ascension
Unknown
Apparent Declination
Unknown
Sunlit
N/A
Visualization observer readout
Local Sidereal Time
21:34:56
Azimuth
Unknown
Elevation
Unknown
Doppler factor
Unknown
Orbital elements
Apogee altitude
1,074.461 km
Perigee altitude
1,054.189 km
Semi-major axis
7,442.462 km
Eccentricity
0.00136
Inclination
99.7501°
RAAN
194.2539°
Arg. of periapsis
56.133°
True anomaly
303.98056°
Mean anomaly
304.1099°
Eccentric anomaly
304.04524°
Mean motion
3.3804 °/min
Orbital period
106.5 mins
BSTAR
-0.0003344
Loading maneuver chart data...
Computing Atmospheric mass density...
Loading historical data...
Loading historical data...
Loading historical data...
Loading historical data...
Loading historical data...
Loading historical data...
Loading historical data...
Other satellites on launch #108 in the year 2018 (2018-12-21 UTC)

Documentation

Showing up to 5 results
|